| time (UTC) | temp F | wind direction | speed knots | gust knots | rain 1hr in | rain 24hr in | rain mn in | humidity % | barometer mb |
| 20260902115501 | 54 | 360 | 0.9 | 0.0 | 0.00 | 0.00 | 0.00 | 83 | 1009.5 |
| 20260902115001 | 54 | 360 | 1.7 | 0.0 | 0.00 | 0.00 | 0.00 | 84 | 1009.6 |
| 20260902114600 | 54 | 360 | 1.7 | 0.0 | 0.00 | 0.00 | 0.00 | 83 | 1009.6 |
| 20260902114100 | 53 | 360 | 0.9 | 0.0 | 0.00 | 0.00 | 0.00 | 83 | 1009.7 |
| 20260902113559 | 53 | 360 | 0.9 | 0.0 | 0.00 | 0.00 | 0.00 | 83 | 1009.7 |
| 20260902113059 | 53 | 360 | 0.0 | 0.0 | 0.00 | 0.00 | 0.00 | 81 | 1009.8 |
| 20260902112558 | 53 | 360 | 0.0 | 0.0 | 0.00 | 0.00 | 0.00 | 81 | 1009.9 |
| 20260902112058 | 53 | 360 | 0.0 | 0.0 | 0.00 | 0.00 | 0.00 | 81 | 1009.8 |
| 20260902111559 | 53 | 360 | 0.0 | 0.0 | 0.00 | 0.00 | 0.00 | 81 | 1009.9 |
| 20260902111056 | 54 | 360 | 0.0 | 0.0 | 0.00 | 0.00 | 0.00 | 80 | 1010.0 |
| 20260902110555 | 54 | 360 | 0.0 | 0.0 | 0.00 | 0.00 | 0.00 | 79 | 1010.0 |
| 20260902110055 | 54 | 360 | 0.0 | 0.0 | 0.00 | 0.00 | 0.00 | 79 | 1010.0 |
| 20260902105554 | 55 | 360 | 0.0 | 0.0 | 0.00 | 0.00 | 0.00 | 79 | 1009.9 |
| 20260902105053 | 55 | 360 | 0.0 | 0.0 | 0.00 | 0.00 | 0.00 | 79 | 1010.0 |
| 20260902104553 | 55 | 360 | 0.0 | 0.0 | 0.00 | 0.00 | 0.00 | 79 | 1010.0 |
| 20260902104054 | 55 | 360 | 0.0 | 0.0 | 0.00 | 0.00 | 0.00 | 79 | 1010.1 |
| 20260902103552 | 55 | 360 | 0.0 | 0.0 | 0.00 | 0.00 | 0.00 | 79 | 1010.1 |
| 20260902103059 | 55 | 360 | 0.0 | 0.0 | 0.00 | 0.00 | 0.00 | 78 | 1010.0 |
| 20260902102551 | 55 | 360 | 0.0 | 0.0 | 0.00 | 0.00 | 0.00 | 77 | 1010.1 |
| 20260902102050 | 55 | 360 | 0.0 | 0.0 | 0.00 | 0.00 | 0.00 | 76 | 1010.1 |
| 20260902101555 | 56 | 360 | 0.9 | 0.0 | 0.00 | 0.00 | 0.00 | 76 | 1010.1 |
| 20260902101048 | 56 | 360 | 0.9 | 0.0 | 0.00 | 0.00 | 0.00 | 75 | 1010.1 |
| 20260902100547 | 57 | 360 | 0.9 | 0.0 | 0.00 | 0.00 | 0.00 | 73 | 1010.1 |
| 20260902100047 | 58 | 360 | 1.7 | 0.0 | 0.00 | 0.00 | 0.00 | 73 | 1010.0 |
| 20260902095546 | 58 | 360 | 2.6 | 0.0 | 0.00 | 0.00 | 0.00 | 74 | 1010.0 |
| 20260902095046 | 58 | 360 | 1.7 | 0.0 | 0.00 | 0.00 | 0.00 | 74 | 1010.2 |
| 20260902094546 | 58 | 360 | 2.6 | 0.0 | 0.00 | 0.00 | 0.00 | 74 | 1010.2 |
| 20260902094046 | 58 | 360 | 2.6 | 0.0 | 0.00 | 0.00 | 0.00 | 76 | 1010.2 |
| 20260902093545 | 58 | 360 | 2.6 | 0.0 | 0.00 | 0.00 | 0.00 | 76 | 1010.2 |
| 20260902093102 | 57 | 360 | 0.9 | 0.0 | 0.00 | 0.00 | 0.00 | 76 | 1010.1 |
| 20260902092545 | 57 | 360 | 0.0 | 0.0 | 0.00 | 0.00 | 0.00 | 73 | 1010.1 |
| 20260902092048 | 57 | 360 | 0.0 | 0.0 | 0.00 | 0.00 | 0.00 | 72 | 1010.3 |
| 20260902091551 | 58 | 360 | 0.0 | 0.0 | 0.00 | 0.00 | 0.00 | 72 | 1010.1 |
| 20260902091041 | 58 | 360 | 0.0 | 0.0 | 0.00 | 0.00 | 0.00 | 71 | 1010.1 |
| 20260902090540 | 59 | 360 | 0.0 | 0.0 | 0.00 | 0.00 | 0.00 | 71 | 1010.1 |
| 20260902090043 | 59 | 360 | 0.0 | 0.0 | 0.00 | 0.00 | 0.00 | 71 | 1010.1 |
| 20260902085539 | 59 | 360 | 0.0 | 0.0 | 0.00 | 0.00 | 0.00 | 71 | 1010.1 |
| 20260902085039 | 59 | 360 | 0.0 | 0.0 | 0.00 | 0.00 | 0.00 | 71 | 1010.2 |
| 20260902084548 | 59 | 360 | 0.0 | 0.0 | 0.00 | 0.00 | 0.00 | 70 | 1010.2 |
| 20260902084038 | 60 | 360 | 0.9 | 0.0 | 0.00 | 0.00 | 0.00 | 70 | 1010.3 |
| 20260902083538 | 60 | 360 | 0.9 | 0.0 | 0.00 | 0.00 | 0.00 | 70 | 1010.3 |
| 20260902083048 | 60 | 360 | 0.9 | 0.0 | 0.00 | 0.00 | 0.00 | 71 | 1010.3 |
| 20260902082537 | 59 | 360 | 0.9 | 0.0 | 0.00 | 0.00 | 0.00 | 72 | 1010.4 |
| 20260902082037 | 59 | 360 | 0.9 | 0.0 | 0.00 | 0.00 | 0.00 | 71 | 1010.4 |
| 20260902081540 | 59 | 360 | 0.9 | 0.0 | 0.00 | 0.00 | 0.00 | 71 | 1010.4 |
| 20260902081036 | 59 | 360 | 0.9 | 0.0 | 0.00 | 0.00 | 0.00 | 70 | 1010.4 |
| 20260902080535 | 60 | 360 | 1.7 | 0.0 | 0.00 | 0.00 | 0.00 | 70 | 1010.4 |
| 20260902080035 | 60 | 360 | 0.9 | 0.0 | 0.00 | 0.00 | 0.00 | 70 | 1010.5 |
| 20260902075533 | 60 | 360 | 0.0 | 0.0 | 0.00 | 0.00 | 0.00 | 69 | 1010.5 |
| 20260902075034 | 60 | 360 | 0.9 | 0.0 | 0.00 | 0.00 | 0.00 | 69 | 1010.5 |
| 20260902074534 | 60 | 360 | 0.9 | 0.0 | 0.00 | 0.00 | 0.00 | 69 | 1010.4 |
| 20260902074032 | 60 | 360 | 0.0 | 0.0 | 0.00 | 0.00 | 0.00 | 67 | 1010.5 |
| 20260902073532 | 60 | 360 | 0.9 | 0.0 | 0.00 | 0.00 | 0.00 | 67 | 1010.5 |
| 20260902073031 | 61 | 360 | 1.7 | 0.0 | 0.00 | 0.00 | 0.00 | 67 | 1010.5 |
| 20260902072531 | 61 | 360 | 1.7 | 0.0 | 0.00 | 0.00 | 0.00 | 67 | 1010.4 |
| 20260902072031 | 61 | 360 | 1.7 | 0.0 | 0.00 | 0.00 | 0.00 | 67 | 1010.5 |
| 20260902071535 | 61 | 360 | 0.9 | 0.0 | 0.00 | 0.00 | 0.00 | 67 | 1010.5 |
| 20260902071031 | 61 | 360 | 0.0 | 0.0 | 0.00 | 0.00 | 0.00 | 67 | 1010.5 |
| 20260902070531 | 62 | 360 | 0.0 | 0.0 | 0.00 | 0.00 | 0.00 | 66 | 1010.5 |
| 20260902070030 | 62 | 360 | 0.0 | 0.0 | 0.00 | 0.00 | 0.00 | 65 | 1010.5 |
| 20260902065531 | 62 | 360 | 0.9 | 0.0 | 0.00 | 0.00 | 0.00 | 65 | 1010.4 |
| 20260902065030 | 62 | 360 | 1.7 | 0.0 | 0.00 | 0.00 | 0.00 | 64 | 1010.5 |
| 20260902064531 | 63 | 360 | 1.7 | 0.0 | 0.00 | 0.00 | 0.00 | 64 | 1010.5 |
| 20260902064030 | 63 | 360 | 2.6 | 0.0 | 0.00 | 0.00 | 0.00 | 63 | 1010.6 |
| 20260902063532 | 63 | 360 | 2.6 | 0.0 | 0.00 | 0.00 | 0.00 | 63 | 1010.4 |
| 20260902063032 | 63 | 360 | 2.6 | 0.0 | 0.00 | 0.00 | 0.00 | 63 | 1010.5 |
| 20260902062530 | 63 | 360 | 1.7 | 0.0 | 0.00 | 0.00 | 0.00 | 63 | 1010.5 |
| 20260902062030 | 64 | 360 | 2.6 | 0.0 | 0.00 | 0.00 | 0.00 | 62 | 1010.5 |
| 20260902061542 | 64 | 360 | 2.6 | 0.0 | 0.00 | 0.00 | 0.00 | 61 | 1010.5 |
| 20260902061030 | 64 | 360 | 3.5 | 0.0 | 0.00 | 0.00 | 0.00 | 61 | 1010.5 |
| 20260902060530 | 65 | 360 | 2.6 | 0.0 | 0.00 | 0.00 | 0.00 | 61 | 1010.6 |
| 20260902060029 | 65 | 360 | 2.6 | 0.0 | 0.00 | 0.00 | 0.00 | 61 | 1010.6 |
| 20260902055532 | 65 | 360 | 2.6 | 0.0 | 0.00 | 0.00 | 0.00 | 61 | 1010.6 |
| 20260902055030 | 65 | 360 | 2.6 | 0.0 | 0.00 | 0.00 | 0.00 | 61 | 1010.7 |
| 20260902054533 | 65 | 360 | 1.7 | 0.0 | 0.00 | 0.00 | 0.00 | 61 | 1010.6 |
| 20260902054029 | 65 | 360 | 1.7 | 0.0 | 0.00 | 0.00 | 0.00 | 60 | 1010.7 |
| 20260902053531 | 65 | 360 | 1.7 | 0.0 | 0.00 | 0.00 | 0.00 | 60 | 1010.7 |
| 20260902053030 | 65 | 360 | 2.6 | 0.0 | 0.00 | 0.00 | 0.00 | 60 | 1010.7 |
| 20260902052533 | 65 | 360 | 2.6 | 0.0 | 0.00 | 0.00 | 0.00 | 61 | 1010.7 |
| 20260902052030 | 65 | 360 | 2.6 | 0.0 | 0.00 | 0.00 | 0.00 | 61 | 1010.7 |
| 20260902051530 | 65 | 360 | 1.7 | 0.0 | 0.00 | 0.00 | 0.00 | 61 | 1010.8 |
| 20260902051030 | 65 | 360 | 1.7 | 0.0 | 0.00 | 0.00 | 0.00 | 60 | 1010.8 |
| 20260902050533 | 65 | 360 | 0.9 | 0.0 | 0.00 | 0.00 | 0.00 | 60 | 1010.8 |
| 20260902050032 | 65 | 360 | 1.7 | 0.0 | 0.00 | 0.00 | 0.00 | 59 | 1010.8 |
| 20260902045529 | 66 | 360 | 2.6 | 0.0 | 0.00 | 0.00 | 0.00 | 59 | 1010.8 |
| 20260902045029 | 66 | 360 | 1.7 | 0.0 | 0.00 | 0.00 | 0.00 | 59 | 1010.8 |
| 20260902044529 | 66 | 360 | 1.7 | 0.0 | 0.00 | 0.00 | 0.00 | 58 | 1010.8 |
| 20260902044030 | 67 | 360 | 1.7 | 0.0 | 0.00 | 0.00 | 0.00 | 57 | 1010.8 |
| 20260902043529 | 67 | 360 | 1.7 | 0.0 | 0.00 | 0.00 | 0.00 | 57 | 1010.8 |
| 20260902043029 | 67 | 360 | 2.6 | 0.0 | 0.00 | 0.00 | 0.00 | 57 | 1010.8 |
| 20260902042529 | 67 | 360 | 2.6 | 0.0 | 0.00 | 0.00 | 0.00 | 57 | 1010.9 |
| 20260902042031 | 67 | 360 | 2.6 | 0.0 | 0.00 | 0.00 | 0.00 | 58 | 1010.9 |
| 20260902041529 | 67 | 360 | 3.5 | 0.0 | 0.00 | 0.00 | 0.00 | 58 | 1010.8 |
| 20260902041035 | 67 | 360 | 3.5 | 0.0 | 0.00 | 0.00 | 0.00 | 59 | 1010.8 |
| 20260902040528 | 67 | 360 | 3.5 | 0.0 | 0.00 | 0.00 | 0.00 | 59 | 1010.7 |
| 20260902040028 | 67 | 360 | 4.3 | 0.0 | 0.00 | 0.00 | 0.00 | 59 | 1010.8 |
| 20260902035527 | 67 | 360 | 4.3 | 0.0 | 0.00 | 0.00 | 0.00 | 59 | 1010.7 |
| 20260902035028 | 67 | 360 | 4.3 | 0.0 | 0.00 | 0.00 | 0.00 | 59 | 1010.7 |
| 20260902034531 | 67 | 360 | 4.3 | 0.0 | 0.00 | 0.00 | 0.00 | 59 | 1010.8 |
| 20260902034027 | 67 | 360 | 4.3 | 0.0 | 0.00 | 0.00 | 0.00 | 59 | 1010.7 |
| 20260902033528 | 67 | 360 | 4.3 | 0.0 | 0.00 | 0.00 | 0.00 | 59 | 1010.7 |
| 20260902033028 | 67 | 360 | 4.3 | 0.0 | 0.00 | 0.00 | 0.00 | 58 | 1010.7 |
| 20260902032530 | 68 | 360 | 4.3 | 0.0 | 0.00 | 0.00 | 0.00 | 58 | 1010.7 |
| 20260902032028 | 68 | 360 | 5.2 | 0.0 | 0.00 | 0.00 | 0.00 | 57 | 1010.6 |
| 20260902031528 | 68 | 360 | 5.2 | 0.0 | 0.00 | 0.00 | 0.00 | 57 | 1010.6 |
| 20260902031029 | 69 | 360 | 5.2 | 0.0 | 0.00 | 0.00 | 0.00 | 56 | 1010.6 |
| 20260902030530 | 69 | 360 | 5.2 | 0.0 | 0.00 | 0.00 | 0.00 | 56 | 1010.6 |
| 20260902030028 | 69 | 360 | 5.2 | 0.0 | 0.00 | 0.00 | 0.00 | 56 | 1010.6 |
| 20260902025528 | 69 | 360 | 5.2 | 0.0 | 0.00 | 0.00 | 0.00 | 56 | 1010.5 |
| 20260902025028 | 69 | 360 | 5.2 | 0.0 | 0.00 | 0.00 | 0.00 | 56 | 1010.6 |
| 20260902024527 | 69 | 360 | 5.2 | 0.0 | 0.00 | 0.00 | 0.00 | 56 | 1010.7 |
| 20260902024027 | 69 | 360 | 6.1 | 0.0 | 0.00 | 0.00 | 0.00 | 55 | 1010.6 |
| 20260902023526 | 69 | 360 | 6.1 | 0.0 | 0.00 | 0.00 | 0.00 | 55 | 1010.5 |
| 20260902023027 | 69 | 360 | 6.1 | 0.0 | 0.00 | 0.00 | 0.00 | 54 | 1010.5 |
| 20260902022527 | 69 | 360 | 6.1 | 0.0 | 0.00 | 0.00 | 0.00 | 54 | 1010.5 |
| 20260902022029 | 70 | 360 | 6.1 | 0.0 | 0.00 | 0.00 | 0.00 | 53 | 1010.5 |
| 20260902021543 | 70 | 360 | 6.1 | 0.0 | 0.00 | 0.00 | 0.00 | 53 | 1010.5 |
| 20260902021029 | 70 | 360 | 6.1 | 0.0 | 0.00 | 0.00 | 0.00 | 52 | 1010.5 |
| 20260902020527 | 70 | 360 | 6.1 | 0.0 | 0.00 | 0.00 | 0.00 | 52 | 1010.5 |
| 20260902020025 | 71 | 360 | 7.0 | 0.0 | 0.00 | 0.00 | 0.00 | 51 | 1010.3 |
| 20260902015526 | 71 | 360 | 7.0 | 0.0 | 0.00 | 0.00 | 0.00 | 50 | 1010.4 |
| 20260902015026 | 71 | 360 | 7.0 | 0.0 | 0.00 | 0.00 | 0.00 | 49 | 1010.4 |
| 20260902014536 | 72 | 360 | 7.0 | 0.0 | 0.00 | 0.00 | 0.00 | 48 | 1010.3 |
| 20260902014026 | 72 | 360 | 7.0 | 0.0 | 0.00 | 0.00 | 0.00 | 47 | 1010.4 |
| 20260902013525 | 72 | 360 | 7.0 | 0.0 | 0.00 | 0.00 | 0.00 | 47 | 1010.4 |
| 20260902013026 | 72 | 360 | 7.0 | 0.0 | 0.00 | 0.00 | 0.00 | 46 | 1010.4 |
| 20260902012525 | 73 | 360 | 7.0 | 0.0 | 0.00 | 0.00 | 0.00 | 45 | 1010.5 |
| 20260902012025 | 73 | 360 | 7.8 | 0.0 | 0.00 | 0.00 | 0.00 | 45 | 1010.4 |
| 20260902011528 | 73 | 360 | 7.0 | 0.0 | 0.00 | 0.00 | 0.00 | 44 | 1010.4 |
| 20260902011025 | 73 | 360 | 7.0 | 0.0 | 0.00 | 0.00 | 0.00 | 45 | 1010.4 |
| 20260902010524 | 74 | 360 | 7.0 | 0.0 | 0.00 | 0.00 | 0.00 | 45 | 1010.4 |
| 20260902010024 | 74 | 82 | 7.8 | 0.0 | 0.00 | 0.00 | 0.00 | 44 | 1010.5 |
| 20260902005524 | 74 | 360 | 7.8 | 0.0 | 0.00 | 0.00 | 0.00 | 43 | 1010.5 |
| 20260902005024 | 75 | 360 | 7.8 | 0.0 | 0.00 | 0.00 | 0.00 | 42 | 1010.5 |
| 20260902004527 | 75 | 360 | 7.0 | 0.0 | 0.00 | 0.00 | 0.00 | 42 | 1010.5 |
| 20260902004022 | 75 | 360 | 7.0 | 0.0 | 0.00 | 0.00 | 0.00 | 42 | 1010.5 |
| 20260902003523 | 75 | 360 | 7.0 | 0.0 | 0.00 | 0.00 | 0.00 | 42 | 1010.5 |
| 20260902003028 | 75 | 82 | 7.8 | 0.0 | 0.00 | 0.00 | 0.00 | 42 | 1010.6 |
| 20260902002522 | 75 | 82 | 7.8 | 0.0 | 0.00 | 0.00 | 0.00 | 41 | 1010.6 |
| 20260902002022 | 76 | 78 | 7.0 | 0.0 | 0.00 | 0.00 | 0.00 | 41 | 1010.5 |
| 20260902001522 | 76 | 73 | 7.0 | 0.0 | 0.00 | 0.00 | 0.00 | 41 | 1010.6 |
| 20260902001025 | 76 | 360 | 7.0 | 0.0 | 0.00 | 0.00 | 0.00 | 41 | 1010.5 |
| 20260902000526 | 76 | 360 | 7.0 | 0.0 | 0.00 | 0.00 | 0.00 | 41 | 1010.6 |
| 20260902000022 | 76 | 360 | 7.0 | 0.0 | 0.00 | 0.00 | 0.00 | 41 | 1010.6 |
| 20260901235521 | 76 | 360 | 7.8 | 0.0 | 0.00 | 0.00 | 0.00 | 40 | 1010.6 |
| 20260901235021 | 77 | 360 | 7.8 | 0.0 | 0.00 | 0.00 | 0.00 | 39 | 1010.6 |
| 20260901234521 | 77 | 360 | 7.8 | 0.0 | 0.00 | 0.00 | 0.00 | 39 | 1010.6 |
| 20260901234021 | 77 | 360 | 7.8 | 0.0 | 0.00 | 0.00 | 0.00 | 39 | 1010.6 |
| 20260901233520 | 77 | 360 | 7.8 | 0.0 | 0.00 | 0.00 | 0.00 | 39 | 1010.6 |
| 20260901233019 | 77 | 360 | 7.0 | 0.0 | 0.00 | 0.00 | 0.00 | 38 | 1010.5 |
| 20260901232519 | 78 | 360 | 7.8 | 0.0 | 0.00 | 0.00 | 0.00 | 38 | 1010.5 |
| 20260901232020 | 78 | 360 | 7.8 | 0.0 | 0.00 | 0.00 | 0.00 | 38 | 1010.5 |
| 20260901231521 | 78 | 360 | 7.8 | 0.0 | 0.00 | 0.00 | 0.00 | 37 | 1010.5 |
| 20260901231022 | 78 | 360 | 7.8 | 0.0 | 0.00 | 0.00 | 0.00 | 37 | 1010.6 |
| 20260901230519 | 78 | 360 | 7.8 | 0.0 | 0.00 | 0.00 | 0.00 | 37 | 1010.5 |
| 20260901230019 | 78 | 360 | 7.8 | 0.0 | 0.00 | 0.00 | 0.00 | 37 | 1010.6 |
| 20260901225518 | 78 | 360 | 8.7 | 0.0 | 0.00 | 0.00 | 0.00 | 38 | 1010.6 |
| 20260901225017 | 78 | 360 | 7.8 | 0.0 | 0.00 | 0.00 | 0.00 | 37 | 1010.7 |
| 20260901224522 | 78 | 360 | 8.7 | 0.0 | 0.00 | 0.00 | 0.00 | 38 | 1010.7 |
| 20260901224016 | 79 | 360 | 8.7 | 0.0 | 0.00 | 0.00 | 0.00 | 38 | 1010.8 |
| 20260901223518 | 79 | 360 | 8.7 | 0.0 | 0.00 | 0.00 | 0.00 | 38 | 1010.8 |
| 20260901223024 | 78 | 360 | 9.6 | 0.0 | 0.00 | 0.00 | 0.00 | 38 | 1010.8 |
| 20260901222517 | 79 | 360 | 8.7 | 0.0 | 0.00 | 0.00 | 0.00 | 38 | 1010.9 |
| 20260901222019 | 79 | 360 | 8.7 | 0.0 | 0.00 | 0.00 | 0.00 | 39 | 1010.9 |
| 20260901221516 | 79 | 360 | 8.7 | 0.0 | 0.00 | 0.00 | 0.00 | 39 | 1011.1 |
| 20260901221015 | 79 | 360 | 7.8 | 0.0 | 0.00 | 0.00 | 0.00 | 38 | 1011.1 |
| 20260901220514 | 79 | 360 | 7.8 | 0.0 | 0.00 | 0.00 | 0.00 | 38 | 1011.2 |
| 20260901220027 | 79 | 360 | 7.0 | 0.0 | 0.00 | 0.00 | 0.00 | 38 | 1011.3 |
| 20260901215514 | 79 | 360 | 7.8 | 0.0 | 0.00 | 0.00 | 0.00 | 39 | 1011.3 |
| 20260901215013 | 79 | 360 | 7.8 | 0.0 | 0.00 | 0.00 | 0.00 | 39 | 1011.4 |
| 20260901214512 | 79 | 360 | 7.0 | 0.0 | 0.00 | 0.00 | 0.00 | 38 | 1011.5 |
| 20260901214011 | 79 | 360 | 7.0 | 0.0 | 0.00 | 0.00 | 0.00 | 38 | 1011.5 |
| 20260901213512 | 79 | 360 | 7.0 | 0.0 | 0.00 | 0.00 | 0.00 | 37 | 1011.6 |
| 20260901213013 | 79 | 360 | 7.0 | 0.0 | 0.00 | 0.00 | 0.00 | 38 | 1011.6 |
| 20260901212512 | 79 | 360 | 6.1 | 0.0 | 0.00 | 0.00 | 0.00 | 38 | 1011.6 |
| 20260901212011 | 79 | 360 | 7.0 | 0.0 | 0.00 | 0.00 | 0.00 | 38 | 1011.7 |
| 20260901211510 | 79 | 360 | 6.1 | 0.0 | 0.00 | 0.00 | 0.00 | 37 | 1011.7 |
| 20260901211010 | 79 | 360 | 6.1 | 0.0 | 0.00 | 0.00 | 0.00 | 37 | 1011.7 |
| 20260901210510 | 79 | 360 | 6.1 | 0.0 | 0.00 | 0.00 | 0.00 | 38 | 1011.6 |
| 20260901210012 | 79 | 360 | 6.1 | 0.0 | 0.00 | 0.00 | 0.00 | 37 | 1011.6 |
| 20260901205510 | 79 | 360 | 6.1 | 0.0 | 0.00 | 0.00 | 0.00 | 37 | 1011.7 |
| 20260901205008 | 79 | 360 | 5.2 | 0.0 | 0.00 | 0.00 | 0.00 | 37 | 1011.8 |
| 20260901204508 | 80 | 360 | 5.2 | 0.0 | 0.00 | 0.00 | 0.00 | 37 | 1011.9 |
| 20260901204111 | 80 | 360 | 5.2 | 0.0 | 0.00 | 0.00 | 0.00 | 37 | 1011.9 |
| 20260901203507 | 80 | 360 | 5.2 | 0.0 | 0.00 | 0.00 | 0.00 | 36 | 1012.0 |
| 20260901203008 | 80 | 360 | 4.3 | 0.0 | 0.00 | 0.00 | 0.00 | 37 | 1012.0 |
| 20260901202506 | 80 | 360 | 4.3 | 0.0 | 0.00 | 0.00 | 0.00 | 36 | 1012.1 |
| 20260901202007 | 80 | 360 | 4.3 | 0.0 | 0.00 | 0.00 | 0.00 | 36 | 1012.1 |
| 20260901201505 | 80 | 360 | 4.3 | 0.0 | 0.00 | 0.00 | 0.00 | 37 | 1012.1 |
| 20260901201005 | 80 | 360 | 4.3 | 0.0 | 0.00 | 0.00 | 0.00 | 36 | 1012.2 |
| 20260901200506 | 79 | 360 | 4.3 | 0.0 | 0.00 | 0.00 | 0.00 | 37 | 1012.3 |
| 20260901200004 | 79 | 360 | 4.3 | 0.0 | 0.00 | 0.00 | 0.00 | 36 | 1012.4 |
| 20260901195503 | 79 | 360 | 5.2 | 0.0 | 0.00 | 0.00 | 0.00 | 36 | 1012.5 |
| 20260901195002 | 79 | 360 | 4.3 | 0.0 | 0.00 | 0.00 | 0.00 | 37 | 1012.5 |
| 20260901194504 | 79 | 360 | 4.3 | 0.0 | 0.00 | 0.00 | 0.00 | 38 | 1012.6 |
| 20260901194002 | 80 | 360 | 4.3 | 0.0 | 0.00 | 0.00 | 0.00 | 38 | 1012.6 |
| 20260901193502 | 79 | 360 | 3.5 | 0.0 | 0.00 | 0.00 | 0.00 | 38 | 1012.6 |
| 20260901193003 | 79 | 360 | 3.5 | 0.0 | 0.00 | 0.00 | 0.00 | 37 | 1012.8 |
| 20260901192600 | 79 | 360 | 3.5 | 0.0 | 0.00 | 0.00 | 0.00 | 36 | 1012.8 |
| 20260901192100 | 79 | 360 | 3.5 | 0.0 | 0.00 | 0.00 | 0.00 | 36 | 1012.9 |
| 20260901191600 | 80 | 360 | 4.3 | 0.0 | 0.00 | 0.00 | 0.00 | 36 | 1013.0 |
| 20260901191058 | 79 | 360 | 4.3 | 0.0 | 0.00 | 0.00 | 0.00 | 38 | 1013.0 |
| 20260901190558 | 78 | 360 | 4.3 | 0.0 | 0.00 | 0.00 | 0.00 | 38 | 1013.0 |
| 20260901190108 | 78 | 360 | 4.3 | 0.0 | 0.00 | 0.00 | 0.00 | 38 | 1013.1 |
| 20260901185558 | 78 | 360 | 4.3 | 0.0 | 0.00 | 0.00 | 0.00 | 37 | 1013.2 |
| 20260901185057 | 78 | 360 | 5.2 | 0.0 | 0.00 | 0.00 | 0.00 | 37 | 1013.3 |
| 20260901184558 | 78 | 360 | 5.2 | 0.0 | 0.00 | 0.00 | 0.00 | 37 | 1013.3 |
| 20260901184057 | 78 | 360 | 4.3 | 0.0 | 0.00 | 0.00 | 0.00 | 37 | 1013.3 |
| 20260901183056 | 78 | 360 | 4.3 | 0.0 | 0.00 | 0.00 | 0.00 | 37 | 1013.3 |
| 20260901182556 | 78 | 360 | 4.3 | 0.0 | 0.00 | 0.00 | 0.00 | 37 | 1013.4 |
| 20260901182056 | 78 | 360 | 5.2 | 0.0 | 0.00 | 0.00 | 0.00 | 37 | 1013.5 |
| 20260901181601 | 77 | 113 | 5.2 | 0.0 | 0.00 | 0.00 | 0.00 | 37 | 1013.6 |
| 20260901181054 | 77 | 90 | 5.2 | 0.0 | 0.00 | 0.00 | 0.00 | 37 | 1013.7 |
| 20260901180554 | 76 | 111 | 6.1 | 0.0 | 0.00 | 0.00 | 0.00 | 37 | 1013.8 |
| 20260901180053 | 76 | 115 | 5.2 | 0.0 | 0.00 | 0.00 | 0.00 | 37 | 1013.8 |
| 20260901175553 | 77 | 115 | 4.3 | 0.0 | 0.00 | 0.00 | 0.00 | 37 | 1013.8 |
| 20260901175053 | 77 | 110 | 3.5 | 0.0 | 0.00 | 0.00 | 0.00 | 37 | 1013.8 |
| 20260901174553 | 77 | 113 | 3.5 | 0.0 | 0.00 | 0.00 | 0.00 | 36 | 1013.8 |
| 20260901174053 | 77 | 79 | 3.5 | 0.0 | 0.00 | 0.00 | 0.00 | 37 | 1013.8 |
| 20260901173052 | 76 | 78 | 4.3 | 0.0 | 0.00 | 0.00 | 0.00 | 37 | 1013.8 |
| 20260901172551 | 76 | 86 | 5.2 | 0.0 | 0.00 | 0.00 | 0.00 | 38 | 1013.9 |
| 20260901172050 | 76 | 360 | 5.2 | 0.0 | 0.00 | 0.00 | 0.00 | 39 | 1013.9 |
| 20260901171605 | 75 | 84 | 4.3 | 0.0 | 0.00 | 0.00 | 0.00 | 40 | 1013.9 |
| 20260901171048 | 75 | 87 | 4.3 | 0.0 | 0.00 | 0.00 | 0.00 | 40 | 1013.8 |
| 20260901170549 | 75 | 107 | 3.5 | 0.0 | 0.00 | 0.00 | 0.00 | 40 | 1013.9 |
| 20260901170055 | 75 | 107 | 4.3 | 0.0 | 0.00 | 0.00 | 0.00 | 39 | 1014.0 |
| 20260901165550 | 75 | 105 | 4.3 | 0.0 | 0.00 | 0.00 | 0.00 | 42 | 1014.0 |
| 20260901165047 | 75 | 107 | 3.5 | 0.0 | 0.00 | 0.00 | 0.00 | 41 | 1014.1 |
| 20260901164551 | 74 | 92 | 3.5 | 0.0 | 0.00 | 0.00 | 0.00 | 42 | 1014.0 |
| 20260901164044 | 74 | 360 | 2.6 | 0.0 | 0.00 | 0.00 | 0.00 | 44 | 1014.0 |
| 20260901163042 | 73 | 134 | 2.6 | 0.0 | 0.00 | 0.00 | 0.00 | 47 | 1014.1 |
| 20260901162544 | 72 | 130 | 2.6 | 0.0 | 0.00 | 0.00 | 0.00 | 47 | 1014.1 |
| 20260901162039 | 72 | 360 | 2.6 | 0.0 | 0.00 | 0.00 | 0.00 | 50 | 1014.1 |
| 20260901161540 | 71 | 360 | 2.6 | 0.0 | 0.00 | 0.00 | 0.00 | 50 | 1014.2 |
| 20260901161036 | 71 | 360 | 2.6 | 0.0 | 0.00 | 0.00 | 0.00 | 52 | 1014.2 |
| 20260901160536 | 70 | 135 | 2.6 | 0.0 | 0.00 | 0.00 | 0.00 | 54 | 1014.2 |
| 20260901160038 | 70 | 134 | 2.6 | 0.0 | 0.00 | 0.00 | 0.00 | 54 | 1014.2 |
| 20260901155532 | 69 | 360 | 2.6 | 0.0 | 0.00 | 0.00 | 0.00 | 56 | 1014.1 |
| 20260901155032 | 68 | 360 | 2.6 | 0.0 | 0.00 | 0.00 | 0.00 | 56 | 1014.2 |
| 20260901154529 | 68 | 360 | 2.6 | 0.0 | 0.00 | 0.00 | 0.00 | 57 | 1014.2 |
| 20260901154028 | 67 | 161 | 3.5 | 0.0 | 0.00 | 0.00 | 0.00 | 58 | 1014.3 |
| 20260901153028 | 66 | 360 | 2.6 | 0.0 | 0.00 | 0.00 | 0.00 | 57 | 1014.4 |
| 20260901152526 | 66 | 360 | 2.6 | 0.0 | 0.00 | 0.00 | 0.00 | 59 | 1014.3 |
| 20260901152025 | 65 | 360 | 1.7 | 0.0 | 0.00 | 0.00 | 0.00 | 60 | 1014.4 |
| 20260901151523 | 65 | 360 | 1.7 | 0.0 | 0.00 | 0.00 | 0.00 | 62 | 1014.5 |
| 20260901151025 | 64 | 360 | 1.7 | 0.0 | 0.00 | 0.00 | 0.00 | 62 | 1014.5 |
| 20260901150522 | 64 | 360 | 0.9 | 0.0 | 0.00 | 0.00 | 0.00 | 62 | 1014.5 |
| 20260901150021 | 63 | 360 | 0.9 | 0.0 | 0.00 | 0.00 | 0.00 | 63 | 1014.5 |
| 20260901145520 | 63 | 360 | 0.9 | 0.0 | 0.00 | 0.00 | 0.00 | 63 | 1014.5 |
| 20260901145019 | 63 | 360 | 0.9 | 0.0 | 0.00 | 0.00 | 0.00 | 64 | 1014.5 |
| 20260901144517 | 62 | 360 | 0.9 | 0.0 | 0.00 | 0.00 | 0.00 | 65 | 1014.4 |
| 20260901144017 | 61 | 360 | 0.9 | 0.0 | 0.00 | 0.00 | 0.00 | 68 | 1014.6 |
| 20260901143014 | 60 | 322 | 0.9 | 0.0 | 0.00 | 0.00 | 0.00 | 71 | 1014.5 |
| 20260901142514 | 59 | 322 | 0.9 | 0.0 | 0.00 | 0.00 | 0.00 | 73 | 1014.6 |
| 20260901142012 | 58 | 322 | 0.0 | 0.0 | 0.00 | 0.00 | 0.00 | 74 | 1014.7 |
| 20260901141517 | 58 | 322 | 0.0 | 0.0 | 0.00 | 0.00 | 0.00 | 75 | 1014.7 |
| 20260901141010 | 57 | 322 | 0.9 | 0.0 | 0.00 | 0.00 | 0.00 | 76 | 1014.7 |
| 20260901140508 | 57 | 322 | 0.9 | 0.0 | 0.00 | 0.00 | 0.00 | 77 | 1014.7 |
| 20260901140007 | 56 | 322 | 0.9 | 0.0 | 0.00 | 0.00 | 0.00 | 79 | 1014.7 |
| 20260901135507 | 56 | 360 | 0.0 | 0.0 | 0.00 | 0.00 | 0.00 | 83 | 1014.7 |
| 20260901135004 | 55 | 360 | 0.0 | 0.0 | 0.00 | 0.00 | 0.00 | 86 | 1014.8 |
| 20260901134503 | 54 | 322 | 0.0 | 0.0 | 0.00 | 0.00 | 0.00 | 88 | 1014.7 |
| 20260901134004 | 52 | 360 | 0.9 | 0.0 | 0.00 | 0.00 | 0.00 | 89 | 1014.7 |
| 20260901133102 | 51 | 360 | 0.9 | 0.0 | 0.00 | 0.00 | 0.00 | 91 | 1014.7 |
| 20260901132600 | 50 | 360 | 0.9 | 0.0 | 0.00 | 0.00 | 0.00 | 91 | 1014.7 |
| 20260901132058 | 49 | 360 | 0.9 | 0.0 | 0.00 | 0.00 | 0.00 | 92 | 1014.6 |
| 20260901131559 | 48 | 360 | 0.0 | 0.0 | 0.00 | 0.00 | 0.00 | 93 | 1014.6 |
| 20260901131055 | 46 | 360 | 0.0 | 0.0 | 0.00 | 0.00 | 0.00 | 92 | 1014.5 |
| 20260901130554 | 45 | 360 | 0.0 | 0.0 | 0.00 | 0.00 | 0.00 | 92 | 1014.4 |
| 20260901130053 | 45 | 360 | 0.0 | 0.0 | 0.00 | 0.00 | 0.00 | 92 | 1014.4 |
| 20260901125553 | 44 | 360 | 0.0 | 0.0 | 0.00 | 0.00 | 0.00 | 91 | 1014.3 |
| 20260901125053 | 43 | 360 | 0.9 | 0.0 | 0.00 | 0.00 | 0.00 | 91 | 1014.3 |
| 20260901124558 | 42 | 360 | 0.9 | 0.0 | 0.00 | 0.00 | 0.00 | 90 | 1014.4 |
| 20260901124053 | 42 | 360 | 0.0 | 0.0 | 0.00 | 0.00 | 0.00 | 90 | 1014.4 |
| 20260901123054 | 42 | 360 | 0.0 | 0.0 | 0.00 | 0.00 | 0.00 | 90 | 1014.4 |
| 20260901122554 | 42 | 360 | 0.9 | 0.0 | 0.00 | 0.00 | 0.00 | 89 | 1014.2 |
| 20260901122055 | 43 | 360 | 0.9 | 0.0 | 0.00 | 0.00 | 0.00 | 89 | 1014.3 |
| 20260901121557 | 43 | 360 | 0.9 | 0.0 | 0.00 | 0.00 | 0.00 | 89 | 1014.3 |
| 20260901121052 | 43 | 360 | 0.0 | 0.0 | 0.00 | 0.00 | 0.00 | 89 | 1014.3 |
| 20260901120552 | 43 | 360 | 0.0 | 0.0 | 0.00 | 0.00 | 0.00 | 90 | 1014.4 |
| 20260901120051 | 43 | 360 | 0.0 | 0.0 | 0.00 | 0.00 | 0.00 | 89 | 1014.4 |
| 20260901115551 | 43 | 360 | 0.0 | 0.0 | 0.00 | 0.00 | 0.00 | 89 | 1014.3 |